This is the latest recevied weather packets stored in our database for station/object KB3KAV. If no packets are shown the sender has not sent any weather packets the latest 10 day(s).
| Time | Temp. | Humidity | Pressure | Rain* | Wind** | Luminosity | Snow |
|---|---|---|---|---|---|---|---|
| 1787511878 | 25.56° C | 68% | 1038.4 hPa | 0 mm | - | 655 W/m² | - |
| 1787511277 | 25° C | 59% | 1038.4 hPa | 0 mm | - | 734 W/m² | - |
| 1787510678 | 24.44° C | 62% | 1038.7 hPa | 0 mm | - | 668 W/m² | - |
| 1787510075 | 24.44° C | 65% | 1038.7 hPa | 0 mm | - | 659 W/m² | - |
| 1787509474 | 24.44° C | 63% | 1038.8 hPa | 0 mm | - | 676 W/m² | - |
| 1787508870 | 25° C | 62% | 1038.8 hPa | 0 mm | - | 665 W/m² | - |
| 1787508268 | 23.89° C | 69% | 1039.1 hPa | 0 mm | - | 754 W/m² | - |
| 1787507666 | 22.78° C | 72% | 1039.1 hPa | 0 mm | - | 737 W/m² | - |
| 1787507063 | 23.89° C | 70% | 1039.3 hPa | 0 mm | - | 125 W/m² | - |
| 1787506461 | 23.89° C | 68% | 1039.2 hPa | 0 mm | - | 746 W/m² | - |
| 1787505857 | 22.78° C | 75% | 1039.2 hPa | 0 mm | - | 84 W/m² | - |
| 1787505253 | 22.78° C | 74% | 1039.5 hPa | 0 mm | - | 205 W/m² | - |
| 1787504648 | 23.33° C | 72% | 1039.3 hPa | 0 mm | - | 741 W/m² | - |
| 1787504045 | 21.67° C | 75% | 1039.7 hPa | 0 mm | - | 104 W/m² | - |
| 1787503441 | 22.78° C | 75% | 1039.4 hPa | 0 mm | - | 744 W/m² | - |
| 1787502839 | 22.78° C | 71% | 1039.4 hPa | 0 mm | - | 132 W/m² | - |
| 1787502238 | 22.78° C | 74% | 1039.6 hPa | 0 mm | - | 645 W/m² | - |
| 1787501636 | 23.33° C | 73% | 1039.7 hPa | 0 mm | - | 720 W/m² | - |
| 1787501034 | 22.78° C | 77% | 1039.8 hPa | 0 mm | - | 726 W/m² | - |
| 1787500430 | 22.22° C | 79% | 1039.8 hPa | 0 mm | - | 727 W/m² | - |
| 1787499831 | 21.11° C | 83% | 1039.9 hPa | 0 mm | - | 629 W/m² | - |
| 1787499227 | 20.56° C | 84% | 1039.9 hPa | 0 mm | - | 167 W/m² | - |
| 1787498627 | 21.11° C | 86% | 1039.9 hPa | 0 mm | - | 235 W/m² | - |
| 1787498024 | 20° C | 88% | 1040.1 hPa | 0 mm | - | 619 W/m² | - |
| 1787497421 | 19.44° C | 90% | 1040.5 hPa | 0 mm | - | 129 W/m² | - |
* Rain latest hour (hover to see other rain measurements)
** Current wind speed in m/s (hover to see current wind gust speed)